DW4959 Weather Reports


time (UTC)temp
F
wind
direction
speed
knots
gust
knots
rain 1hr
in
rain 24hr
in
rain mn
in
humidity
%
barometer
mb
20190523143021 58 240 6.1 9.6 0.00 0.00 0.00 52 1014.4
20190523141715 58 234 6.1 11.3 0.00 0.00 0.00 53 1014.1
20190523134609 56 188 3.5 6.1 0.00 0.00 0.00 55 1013.8
20190523133131 55 186 2.6 6.1 0.00 0.00 0.00 56 1013.5
20190523131653 54 188 0.0 0.0 0.00 0.00 0.00 56 1013.1
20190523130308 54 198 0.0 4.3 0.00 0.00 0.00 55 1013.0
20190523124650 54 230 0.0 4.3 0.00 0.00 0.00 55 1012.6
20190523123038 54 234 4.3 9.6 0.00 0.00 0.00 55 1012.3
20190523121552 55 248 4.3 7.8 0.00 0.00 0.00 53 1012.1
20190523120053 55 236 8.7 14.8 0.00 0.00 0.00 51 1011.8
20190523114518 56 178 4.3 12.2 0.00 0.00 0.00 50 1011.4
20190523113218 56 200 6.1 13.9 0.00 0.00 0.00 51 1011.1
20190523111514 56 183 4.3 8.7 0.00 0.00 0.00 54 1010.8
20190523110119 56 221 3.5 8.7 0.00 0.00 0.00 57 1010.6
20190523104623 56 192 4.3 14.8 0.00 0.00 0.00 58 1010.6
20190523103127 56 212 9.6 16.5 0.00 0.00 0.00 58 1010.5
20190523101614 56 206 7.0 13.9 0.00 0.00 0.00 56 1010.4
20190523100128 56 211 4.3 7.8 0.00 0.00 0.00 55 1010.1
20190523094535 57 225 3.5 7.8 0.00 0.00 0.00 54 1010.1
20190523093129 56 209 3.5 7.8 0.00 0.00 0.00 54 1009.9
20190523090328 57 150 4.3 7.8 0.00 0.00 0.00 52 1009.7
20190523084649 56 196 5.2 8.7 0.00 0.00 0.00 52 1009.6
20190523083004 57 198 3.5 8.7 0.00 0.00 0.00 51 1009.4
20190523074640 57 216 6.1 11.3 0.00 0.00 0.00 50 1009.4
20190523073041 57 234 7.8 13.0 0.00 0.00 0.00 49 1009.2
20190523071604 58 247 9.6 15.6 0.00 0.00 0.00 49 1009.2
20190523064620 58 242 9.6 13.9 0.00 0.00 0.00 48 1008.9
20190523063135 59 244 7.0 11.3 0.00 0.00 0.00 47 1008.8
20190523061714 59 245 8.7 14.8 0.00 0.00 0.00 46 1008.5
20190523060103 59 242 6.1 13.9 0.00 0.00 0.00 46 1008.4
20190523051511 61 244 3.5 7.0 0.00 0.00 0.00 40 1008.2
20190523050135 61 244 6.1 10.4 0.00 0.00 0.00 39 1008.0
20190523044501 62 276 7.0 11.3 0.00 0.00 0.00 38 1007.9
20190523043152 62 293 7.0 11.3 0.00 0.00 0.00 36 1007.7
20190523034549 64 277 6.1 8.7 0.00 0.00 0.00 34 1006.5
20190523033004 64 271 7.0 13.0 0.00 0.00 0.00 33 1006.3
20190523031656 65 259 6.1 11.3 0.00 0.00 0.00 32 1006.1
20190523030106 66 296 7.0 13.0 0.00 0.00 0.00 31 1005.7
20190523024502 67 295 6.1 10.4 0.00 0.00 0.00 31 1005.5
20190523021730 70 233 10.4 19.1 0.00 0.00 0.00 33 1005.0
20190523020113 71 238 11.3 19.1 0.00 0.00 0.00 33 1004.8
20190523014623 72 267 13.0 19.1 0.00 0.00 0.00 31 1004.6
20190523013128 72 249 13.0 18.2 0.00 0.00 0.00 30 1004.5
20190523011506 73 242 12.2 21.7 0.00 0.00 0.00 29 1004.5
20190523010141 74 236 11.3 18.2 0.00 0.00 0.00 27 1004.4
20190523004619 75 242 11.3 20.0 0.00 0.00 0.00 27 1004.4
20190523003138 75 244 9.6 20.9 0.00 0.00 0.00 26 1004.4
20190523001535 75 267 14.8 23.5 0.00 0.00 0.00 25 1004.4
20190522234549 76 233 10.4 22.6 0.00 0.00 0.00 24 1004.3
20190522233156 76 221 16.5 24.3 0.00 0.00 0.00 24 1004.5
20190522231631 76 230 13.9 24.3 0.00 0.00 0.00 24 1004.4
20190522230037 76 236 13.9 27.8 0.00 0.00 0.00 25 1004.5
20190522224805 77 238 14.8 25.2 0.00 0.00 0.00 26 1004.7
20190522223128 76 226 16.5 26.1 0.00 0.00 0.00 27 1004.6
20190522221546 77 241 11.3 24.3 0.00 0.00 0.00 27 1004.7
20190522214652 77 248 11.3 22.6 0.00 0.00 0.00 27 1004.9
20190522213026 77 258 12.2 21.7 0.00 0.00 0.00 28 1005.0
20190522210117 76 228 13.0 19.1 0.00 0.00 0.00 30 1005.6
20190522204603 76 267 14.8 22.6 0.00 0.00 0.00 29 1005.7
20190522203129 75 215 16.5 27.8 0.00 0.00 0.00 29 1005.8
20190522201622 75 229 14.8 20.9 0.00 0.00 0.00 29 1005.9
20190522200135 75 284 14.8 23.5 0.00 0.00 0.00 27 1006.0
20190522194523 75 258 11.3 23.5 0.00 0.00 0.00 28 1006.3
20190522193115 74 232 12.2 25.2 0.00 0.00 0.00 29 1006.2
20190522191623 73 260 14.8 27.8 0.00 0.00 0.00 28 1006.3
20190522190003 73 221 14.8 29.5 0.00 0.00 0.00 28 1006.3
20190522184632 73 241 12.2 24.3 0.00 0.00 0.00 27 1006.4
20190522183100 72 248 11.3 20.9 0.00 0.00 0.00 28 1006.5
20190522181742 72 205 13.9 22.6 0.00 0.00 0.00 28 1006.7
20190522180044 72 234 11.3 21.7 0.00 0.00 0.00 28 1006.6
20190522174618 71 251 13.9 26.9 0.00 0.00 0.00 28 1006.6
20190522173127 71 223 13.9 22.6 0.00 0.00 0.00 29 1006.5
20190522170035 71 175 10.4 18.2 0.00 0.00 0.00 30 1006.4
20190522164551 70 221 13.0 19.1 0.00 0.00 0.00 30 1006.5
20190522163236 69 250 8.7 19.1 0.00 0.00 0.00 30 1006.3
20190522161638 69 215 10.4 19.1 0.00 0.00 0.00 30 1006.3
20190522160040 69 247 13.0 21.7 0.00 0.00 0.00 27 1006.1
20190522154737 68 183 10.4 16.5 0.00 0.00 0.00 26 1006.1
20190522153015 68 228 7.8 14.8 0.00 0.00 0.00 26 1006.0
20190522151628 66 175 7.8 12.2 0.00 0.00 0.00 27 1005.9
20190522150213 64 217 7.0 13.0 0.00 0.00 0.00 30 1006.1
20190522144513 64 255 8.7 13.9 0.00 0.00 0.00 31 1006.1